BAW42LX EGLL-LEMG

Flight info

Callsign BAW42LX
Flight time N/A
Altitude 35000
Route GOGSI N621 SAM M195 MARUK N621 LELNA DCT NOVAN/N0455F370 DCT DELOG DCT CRISA N864 VULPE
Aircraft A21N/M-SDE3FGIJ1LRWXYZ/SB1G1

Departure

Time 2026-05-04 05:27
Airport London Heathrow Airport (EGLL)

Arrival

Time N/A
Airport Málaga-Costa del Sol Airport (LEMG)
Time Latitude Longitude Altitude Speed Heading
2026-05-04 05:11 51.46981 -0.48219 91 ft 0 kts 90°
2026-05-04 05:17 51.46981 -0.48224 91 ft 2 kts 90°
2026-05-04 05:17 51.46981 -0.48248 91 ft 2 kts 90°
2026-05-04 05:17 51.46981 -0.48271 91 ft 2 kts 90°
2026-05-04 05:17 51.46981 -0.48296 91 ft 2 kts 90°
2026-05-04 05:18 51.46981 -0.48320 91 ft 2 kts 105°
2026-05-04 05:18 51.46989 -0.48341 91 ft 2 kts 136°
2026-05-04 05:18 51.47001 -0.48354 91 ft 2 kts 165°
2026-05-04 05:18 51.47010 -0.48357 91 ft 1 kts 181°
2026-05-04 05:19 51.47016 -0.48356 91 ft 0 kts 181°
2026-05-04 05:20 51.47015 -0.48356 91 ft 0 kts 181°
2026-05-04 05:20 51.46981 -0.48357 91 ft 9 kts 182°
2026-05-04 05:20 51.46890 -0.48356 91 ft 14 kts 179°
2026-05-04 05:20 51.46775 -0.48350 91 ft 16 kts 166°
2026-05-04 05:21 51.46742 -0.48187 91 ft 17 kts 89°
2026-05-04 05:21 51.46743 -0.47988 91 ft 18 kts 90°
2026-05-04 05:21 51.46744 -0.47780 91 ft 18 kts 91°
2026-05-04 05:21 51.46744 -0.47575 91 ft 18 kts 90°
2026-05-04 05:22 51.46744 -0.47376 91 ft 17 kts 90°
2026-05-04 05:22 51.46746 -0.47177 91 ft 18 kts 89°
2026-05-04 05:22 51.46745 -0.46963 91 ft 19 kts 91°
2026-05-04 05:22 51.46748 -0.46743 91 ft 22 kts 90°
2026-05-04 05:23 51.46748 -0.46474 91 ft 25 kts 91°
2026-05-04 05:23 51.46746 -0.46203 91 ft 23 kts 90°
2026-05-04 05:23 51.46748 -0.45946 91 ft 22 kts 90°
2026-05-04 05:23 51.46749 -0.45704 91 ft 21 kts 90°
2026-05-04 05:24 51.46749 -0.45463 91 ft 21 kts 90°
2026-05-04 05:24 51.46750 -0.45230 91 ft 20 kts 90°
2026-05-04 05:24 51.46751 -0.44988 91 ft 25 kts 90°
2026-05-04 05:24 51.46751 -0.44706 91 ft 24 kts 90°
2026-05-04 05:25 51.46753 -0.44445 91 ft 23 kts 91°
2026-05-04 05:25 51.46753 -0.44192 91 ft 21 kts 91°
2026-05-04 05:25 51.46699 -0.44055 91 ft 16 kts 182°
2026-05-04 05:25 51.46590 -0.44050 91 ft 15 kts 179°
2026-05-04 05:26 51.46492 -0.44091 91 ft 15 kts 255°
2026-05-04 05:26 51.46492 -0.44449 91 ft 66 kts 270°
2026-05-04 05:26 51.46487 -0.45581 92 ft 135 kts 270°
2026-05-04 05:26 51.46482 -0.47345 295 ft 168 kts 270°
2026-05-04 05:27 51.46444 -0.49166 990 ft 165 kts 270°
2026-05-04 05:28 51.46005 -0.65104 4431 ft 265 kts 258°
2026-05-04 05:29 51.45671 -0.68098 5285 ft 271 kts 263°
2026-05-04 05:29 51.45521 -0.71107 6243 ft 272 kts 267°
2026-05-04 05:29 51.45452 -0.74120 7110 ft 273 kts 268°
2026-05-04 05:29 51.45404 -0.77165 8000 ft 276 kts 268°
2026-05-04 05:31 51.36852 -0.91794 12009 ft 341 kts 208°
2026-05-04 05:31 51.34792 -0.93792 12722 ft 346 kts 213°
2026-05-04 05:32 51.32812 -0.95934 13442 ft 349 kts 214°
2026-05-04 05:32 51.30824 -0.98134 14122 ft 353 kts 214°
2026-05-04 05:32 51.28794 -1.00374 14823 ft 356 kts 214°
2026-05-04 05:33 51.24616 -1.04725 16212 ft 361 kts 213°
2026-05-04 05:33 51.22501 -1.06894 16879 ft 364 kts 213°
2026-05-04 05:33 51.20363 -1.09089 17531 ft 367 kts 213°
2026-05-04 05:33 51.18202 -1.11311 18184 ft 370 kts 213°
2026-05-04 05:34 51.16041 -1.13532 18778 ft 373 kts 212°
2026-05-04 05:34 51.13878 -1.15754 19393 ft 376 kts 212°
2026-05-04 05:34 51.11675 -1.18011 20000 ft 378 kts 212°
2026-05-04 05:34 51.09441 -1.20301 20604 ft 381 kts 213°
2026-05-04 05:35 51.07219 -1.22575 21173 ft 383 kts 213°
2026-05-04 05:35 51.04971 -1.24874 21717 ft 386 kts 213°
2026-05-04 05:35 51.02689 -1.27204 22262 ft 388 kts 213°
2026-05-04 05:35 51.00397 -1.29543 22804 ft 391 kts 213°
2026-05-04 05:36 50.98111 -1.31873 23330 ft 393 kts 213°
2026-05-04 05:36 50.95777 -1.34249 23839 ft 395 kts 213°
2026-05-04 05:36 50.93466 -1.36635 24313 ft 397 kts 214°
2026-05-04 05:36 50.91155 -1.39050 24790 ft 399 kts 214°
2026-05-04 05:37 50.88815 -1.41496 25262 ft 400 kts 214°
2026-05-04 05:37 50.86455 -1.43958 25712 ft 402 kts 213°
2026-05-04 05:37 50.84098 -1.46413 26146 ft 403 kts 213°
2026-05-04 05:38 50.79377 -1.51312 26969 ft 406 kts 213°
2026-05-04 05:38 50.76993 -1.53780 27336 ft 408 kts 213°
2026-05-04 05:38 50.74645 -1.56207 27672 ft 410 kts 213°
2026-05-04 05:38 50.72247 -1.58682 28017 ft 412 kts 213°
2026-05-04 05:39 50.69841 -1.61165 28367 ft 413 kts 213°
2026-05-04 05:39 50.65024 -1.66124 29015 ft 416 kts 212°
2026-05-04 05:39 50.62561 -1.68655 29435 ft 415 kts 212°
2026-05-04 05:40 50.57801 -1.73539 30348 ft 410 kts 212°
2026-05-04 05:40 50.55406 -1.75991 30788 ft 407 kts 212°
2026-05-04 05:40 50.53047 -1.78401 31167 ft 406 kts 212°
2026-05-04 05:41 50.50709 -1.80788 31446 ft 406 kts 212°
2026-05-04 05:41 50.48333 -1.83212 31702 ft 407 kts 212°
2026-05-04 05:41 50.45966 -1.85622 31952 ft 408 kts 212°
2026-05-04 05:41 50.43676 -1.87954 32195 ft 409 kts 212°
2026-05-04 05:42 50.41314 -1.90354 32443 ft 409 kts 212°
2026-05-04 05:42 50.38923 -1.92780 32694 ft 410 kts 212°
2026-05-04 05:42 50.36548 -1.95188 32943 ft 410 kts 212°
2026-05-04 05:42 50.34149 -1.97615 33185 ft 411 kts 212°
2026-05-04 05:43 50.31775 -1.99992 33379 ft 411 kts 211°
2026-05-04 05:43 50.29273 -2.02174 33550 ft 412 kts 206°
2026-05-04 05:43 50.26662 -2.04061 33698 ft 414 kts 202°
2026-05-04 05:45 50.07016 -2.09516 35091 ft 412 kts 186°
2026-05-04 05:45 50.04142 -2.09894 35296 ft 411 kts 186°
2026-05-04 05:47 49.85018 -2.16851 36655 ft 401 kts 197°
2026-05-04 05:47 49.79659 -2.19339 36768 ft 406 kts 197°
2026-05-04 05:48 49.76969 -2.20587 36933 ft 406 kts 197°
2026-05-04 05:48 49.74255 -2.21847 36943 ft 410 kts 197°
2026-05-04 05:48 49.68772 -2.24390 36955 ft 417 kts 197°
2026-05-04 05:49 49.63182 -2.26975 36966 ft 425 kts 197°
2026-05-04 05:49 49.57476 -2.29610 36968 ft 432 kts 197°
2026-05-04 05:51 49.35049 -2.39895 36959 ft 429 kts 197°
2026-05-04 05:52 49.29348 -2.42495 36966 ft 429 kts 197°
2026-05-04 05:52 49.23662 -2.45082 36964 ft 429 kts 197°
2026-05-04 05:54 49.00851 -2.55396 36960 ft 427 kts 197°
2026-05-04 05:55 48.95159 -2.57953 36958 ft 427 kts 197°
2026-05-04 05:55 48.89444 -2.60516 36958 ft 428 kts 197°
2026-05-04 05:56 48.83730 -2.63071 36957 ft 428 kts 197°
2026-05-04 05:56 48.78003 -2.65626 36964 ft 428 kts 196°
2026-05-04 05:57 48.72306 -2.68162 36958 ft 429 kts 196°
2026-05-04 05:57 48.66569 -2.70711 36972 ft 428 kts 196°
2026-05-04 05:58 48.60878 -2.73231 36967 ft 429 kts 196°
2026-05-04 05:58 48.55168 -2.75754 36980 ft 428 kts 196°
2026-05-04 05:59 48.49457 -2.78273 36973 ft 428 kts 196°
2026-05-04 05:59 48.43760 -2.80782 36967 ft 428 kts 196°
2026-05-04 06:00 48.38035 -2.83294 36971 ft 429 kts 196°
2026-05-04 06:00 48.32319 -2.85796 36970 ft 429 kts 196°
2026-05-04 06:01 48.26618 -2.88287 36972 ft 429 kts 196°
2026-05-04 06:03 48.03774 -2.98207 36970 ft 428 kts 196°
2026-05-04 06:05 47.78021 -3.09284 36970 ft 426 kts 196°
2026-05-04 06:06 47.72316 -3.11723 36972 ft 427 kts 196°
2026-05-04 06:06 47.66653 -3.14138 36972 ft 426 kts 196°
2026-05-04 06:07 47.60947 -3.16566 36967 ft 427 kts 196°
2026-05-04 06:07 47.55260 -3.18980 36964 ft 427 kts 196°
2026-05-04 06:08 47.49558 -3.21395 36963 ft 428 kts 196°
2026-05-04 06:08 47.43851 -3.23805 36965 ft 427 kts 196°
2026-05-04 06:09 47.38150 -3.26209 36965 ft 427 kts 197°
2026-05-04 06:11 47.15349 -3.35769 36953 ft 428 kts 197°
2026-05-04 06:13 46.92461 -3.45280 36947 ft 427 kts 197°
2026-05-04 06:14 46.72457 -3.53524 36955 ft 429 kts 197°
2026-05-04 06:15 46.66738 -3.55869 36954 ft 429 kts 197°
2026-05-04 06:15 46.61017 -3.58210 36959 ft 429 kts 197°
2026-05-04 06:16 46.55283 -3.60551 36955 ft 429 kts 197°
2026-05-04 06:16 46.49549 -3.62885 36961 ft 429 kts 197°
2026-05-04 06:17 46.43794 -3.65227 36953 ft 429 kts 196°
2026-05-04 06:17 46.38064 -3.67549 36965 ft 429 kts 196°
2026-05-04 06:18 46.32288 -3.69589 36956 ft 430 kts 191°
2026-05-04 06:20 46.08549 -3.73447 36972 ft 430 kts 187°
2026-05-04 06:21 45.93699 -3.75651 36972 ft 430 kts 187°
2026-05-04 06:22 45.87756 -3.76528 36975 ft 430 kts 187°
2026-05-04 06:25 45.46118 -3.82624 36978 ft 430 kts 187°
2026-05-04 06:26 45.40167 -3.83488 36979 ft 430 kts 187°
2026-05-04 06:26 45.34227 -3.84348 36976 ft 430 kts 187°
2026-05-04 06:27 45.19407 -3.86486 36973 ft 430 kts 187°
2026-05-04 06:28 45.13456 -3.87342 36969 ft 430 kts 187°
2026-05-04 06:28 45.07510 -3.88195 36962 ft 430 kts 187°
2026-05-04 06:29 45.01539 -3.89050 36960 ft 430 kts 187°
2026-05-04 06:29 44.95587 -3.89899 36959 ft 431 kts 187°
2026-05-04 06:30 44.89640 -3.90749 36962 ft 430 kts 187°
2026-05-04 06:30 44.83788 -3.91581 36961 ft 430 kts 187°
2026-05-04 06:31 44.77847 -3.92423 36966 ft 430 kts 187°
2026-05-04 06:31 44.71929 -3.93262 36964 ft 430 kts 187°
2026-05-04 06:33 44.48174 -3.96609 36968 ft 429 kts 187°
2026-05-04 06:34 44.42245 -3.97442 36971 ft 430 kts 187°
2026-05-04 06:34 44.36307 -3.98272 36970 ft 430 kts 187°
2026-05-04 06:36 44.12525 -4.01092 36978 ft 429 kts 187°
2026-05-04 06:37 44.06566 -4.01768 36974 ft 428 kts 187°
2026-05-04 06:37 44.00671 -4.02436 36980 ft 429 kts 187°
2026-05-04 06:38 43.94716 -4.03113 36979 ft 429 kts 187°
2026-05-04 06:40 43.70992 -4.05797 36982 ft 428 kts 187°
2026-05-04 06:40 43.65086 -4.06459 36984 ft 428 kts 187°
2026-05-04 06:41 43.59140 -4.07126 36988 ft 428 kts 187°
2026-05-04 06:41 43.53242 -4.07787 36990 ft 428 kts 187°
2026-05-04 06:42 43.47332 -4.08447 36993 ft 427 kts 187°
2026-05-04 06:44 43.23592 -4.11089 36989 ft 427 kts 187°
2026-05-04 06:44 43.17696 -4.11743 36992 ft 427 kts 187°
2026-05-04 06:45 43.11768 -4.12397 36992 ft 427 kts 187°
2026-05-04 06:45 43.05855 -4.13049 36987 ft 427 kts 188°
2026-05-04 06:46 42.99948 -4.13699 36980 ft 427 kts 188°
2026-05-04 06:46 42.94028 -4.14349 36976 ft 427 kts 188°
2026-05-04 06:48 42.70059 -4.16970 36955 ft 425 kts 188°
2026-05-04 06:50 42.46398 -4.19535 36963 ft 426 kts 188°
2026-05-04 06:51 42.40471 -4.20176 36962 ft 426 kts 188°
2026-05-04 06:51 42.34565 -4.20812 36964 ft 425 kts 188°
2026-05-04 06:52 42.28624 -4.21451 36960 ft 425 kts 188°
2026-05-04 06:52 42.22684 -4.22091 36962 ft 425 kts 188°
2026-05-04 06:53 42.16794 -4.22720 36961 ft 425 kts 188°
2026-05-04 06:53 42.10912 -4.23350 36960 ft 425 kts 188°
2026-05-04 06:54 42.05009 -4.23980 36957 ft 425 kts 188°
2026-05-04 06:54 41.99102 -4.24609 36955 ft 425 kts 188°
2026-05-04 06:55 41.93218 -4.25235 36959 ft 425 kts 189°
2026-05-04 06:55 41.87407 -4.25850 36966 ft 425 kts 189°
2026-05-04 06:57 41.63828 -4.28343 36983 ft 423 kts 189°
2026-05-04 06:58 41.57977 -4.28960 36988 ft 423 kts 189°
2026-05-04 06:58 41.52097 -4.29577 36989 ft 422 kts 189°
2026-05-04 06:59 41.46268 -4.30187 36983 ft 422 kts 189°
2026-05-04 06:59 41.40397 -4.30801 36992 ft 421 kts 189°
2026-05-04 07:01 41.16980 -4.33239 36991 ft 421 kts 190°